Location: Pedholt
(56.0260°N, 10.2097°E)
Time: 18:27:11
(UTC+00:00)

A-11 Canister half - Pass Details

Date: 31 July 2021
Orbit: 1515 x 1685 km, 47.2° (Epoch: 20 September)

Event Time Altitude Azimuth Distance (km) Brightness Sun altitude
Rises 17:13:33 0° 229° (SW) 4,806 12.2 16.6°
Reaches altitude 10° 17:16:50 10° 222° (SW) 3,846 11.7 16.1°
Maximum altitude 17:25:48 42° 157° (SSE) 2,227 9.8 14.9°
Drops below altitude 10° 17:35:01 10° 91° (E) 3,946 10.6 13.6°
Sets 17:38:25 0° 85° (E) 4,942 11.1 13.2°
